Weather observations for the past three days for
Topeka, Forbes Field
Imperial (Metric)
Date Time (cdt) Wind (mph) Vis. (mi.) Weather Sky Cond. Temperature (ºF) Relative Humidity Wind Chill (°F) Heat Index (°F) Pressure Precipitation (in)
Air Dwpt 6 hour altimeter (in) sea level (mb) 1 hr 3 hr 6 hr
Max. Min.
14 16:53 S 9 10.00 Fair CLR 97 73 46% 107 29.9 1011.1
14 15:53 S 14 10.00 Fair CLR 96.1 73 48% 106 29.91 1011.4
14 14:53 S 12 10.00 Fair CLR 95 73.9 51% 106 29.93 1012.2
14 13:53 S 13 10.00 Fair CLR 91.9 75 58% 103 29.94 1012.4
14 12:53 SW 13 10.00 Fair CLR 89.1 73.9 90 77 61% 98 29.98 1013.8
14 11:53 S 16 10.00 Fair CLR 87.1 72 61% 94 29.98 1014.0
14 10:53 S 15 G 24 10.00 Fair CLR 84 72 67% 90 29.99 1014.4
14 09:53 SW 13 G 21 10.00 Fair CLR 82.9 71.1 67% 88 30.02 1015.4
14 08:53 S 13 G 21 10.00 Fair CLR 80.1 70 71% 83 29.98 1014.0
14 07:53 S 14 10.00 Fair CLR 77 69.1 77% 79 29.98 1014.0
14 06:53 S 14 10.00 Partly Cloudy FEW070 SCT090 78.1 66.9 80.1 77 69% 80 29.98 1014.0
14 05:53 S 9 10.00 Fair CLR 78.1 66.9 69% 80 29.98 1013.9
14 04:53 S 10 10.00 Fair CLR 77 66.9 71% 79 29.96 1013.3
14 03:53 S 15 10.00 Fair CLR 78.1 66.9 69% 80 29.96 1013.1
14 02:53 S 14 10.00 Fair CLR 78.1 66.9 69% 80 29.96 1013.4
14 00:53 S 15 G 25 10.00 Fair CLR 80.1 66.9 88 80.1 64% 82 29.99 1014.3
13 23:53 S 12 10.00 Fair CLR 80.1 68 67% 83 30 1014.5
13 22:53 S 10 10.00 Fair CLR 80.1 69.1 69% 83 30 1014.6
13 21:53 S 9 10.00 Fair CLR 81 70 69% 84 29.99 1014.4
13 20:53 S 10 G 18 10.00 Fair CLR 84.9 69.1 59% 89 29.97 1013.7
13 19:53 S 12 10.00 Fair CLR 87.1 71.1 59% 93 29.98 1014.0
13 18:53 S 13 10.00 Fair CLR 88 70 91.9 66 55% 93 29.98 1013.9
13 17:53 S 12 10.00 Fair CLR 89.1 70 53% 94 30 1014.6
13 16:53 S 16 G 25 10.00 Fair CLR 91.9 69.1 47% 97 30.02 1015.1
13 15:53 S 15 G 28 10.00 Fair CLR 91.9 70 49% 98 30.01 1015.0
13 14:53 S 18 G 30 10.00 Fair CLR 91 72 54% 99 30.03 1015.5
13 13:53 S 20 G 31 10.00 Fair CLR 90 72 56% 97 30.03 1015.5
13 12:53 S 21 G 33 10.00 Fair and Breezy CLR 89.1 72 89.1 77 57% 96 30.04 1016.1
13 11:53 S 23 G 36 10.00 Fair and Breezy CLR 84 70 63% 88 30.04 1016.1
13 10:53 S 21 G 32 10.00 Fair and Breezy CLR 82.9 70 65% 87 30.04 1016.1
13 09:53 S 15 G 25 10.00 Fair CLR 79 70 74% 82 30.05 1016.5
13 08:53 S 12 G 23 10.00 Fair CLR 79 69.1 72% 82 30.05 1016.4
13 07:53 S 22 G 32 10.00 Fair and Breezy CLR 79 68 69% 81 30.02 1015.2
13 06:53 S 15 G 25 10.00 Fair CLR 77 68 78.1 73.9 74% 79 30 1014.7
13 05:53 S 9 10.00 Fair CLR 75.9 68 77% 77 30.01 1014.8
13 04:53 S 10 10.00 Fair CLR 75.9 68 77% 77 30 1014.6
13 03:53 SE 9 10.00 Fair CLR 75 68 79% 76 30 1014.6
13 02:53 SE 8 10.00 Fair CLR 75.9 68 77% 77 29.99 1014.4
13 01:53 SE 8 10.00 Fair CLR 77 69.1 77% 79 29.99 1014.3
13 00:53 SE 10 10.00 Fair CLR 78.1 69.1 89.1 78.1 74% 80 30 1014.7
12 23:53 SE 10 10.00 Fair CLR 80.1 70 71% 83 30 1014.7
12 22:53 SE 8 10.00 Fair CLR 81 71.1 72% 85 30 1014.8
12 21:53 S 12 10.00 Fair CLR 84 72 67% 90 29.98 1014.0
12 20:53 SE 10 10.00 Fair CLR 84.9 73 68% 92 29.97 1013.8
12 19:53 E 8 10.00 Fair CLR 86 73.9 67% 94 29.98 1014.0
12 18:53 SE 9 10.00 Fair CLR 89.1 73.9 91.9 87.1 61% 98 29.96 1013.4
12 17:53 SE 12 10.00 Fair CLR 90 73.9 59% 99 29.96 1013.3
12 16:53 SE 7 10.00 Fair CLR 91 73.9 57% 101 29.98 1013.9
12 15:53 S 12 10.00 Fair CLR 90 71.1 54% 96 29.98 1014.0
12 14:53 SE 15 10.00 Fair CLR 90 72 56% 97 29.99 1014.2
12 13:53 S 10 10.00 Fair CLR 88 70 55% 93 30.01 1014.9
12 12:53 S 9 G 18 10.00 Fair CLR 87.1 70 87.1 72 57% 92 30.02 1015.3
12 11:53 S 14 10.00 Fair CLR 84.9 68 57% 88 30.02 1015.2
12 10:53 S 13 10.00 Fair CLR 82 66 58% 84 30.02 1015.4
12 09:53 S 12 10.00 Fair CLR 79 63 58% 81 30.03 1015.8
12 08:53 SE 13 10.00 Fair CLR 75.9 62.1 62% 78 30.04 1016.0
12 07:53 S 12 10.00 Fair CLR 73 61 66% 30.03 1015.7
12 06:53 S 14 10.00 Fair CLR 72 62.1 75 66.9 71% 30 1014.7
12 05:53 SW 3 10.00 Fair CLR 66.9 64 91% 29.99 1014.3
12 04:53 SE 5 10.00 Fair CLR 69.1 64 84% 30 1014.7
12 03:53 SE 14 10.00 Mostly Cloudy SCT050 SCT070 BKN090 73 64.9 76% 29.99 1014.3
12 02:53 SE 10 10.00 Partly Cloudy SCT070 73.9 68 82% 29.97 1013.7
12 01:53 E 9 10.00 Fair CLR 73.9 69.1 85% 29.99 1014.4
12 00:53 E 8 10.00 Fair CLR 75 69.1 84.9 75 82% 75 30 1014.5
11 23:53 E 13 G 21 10.00 Partly Cloudy SCT080 77 70 79% 79 30.01 1015.1
11 22:53 E 6 10.00 Fair CLR 75 69.1 82% 75 30 1014.7
11 21:53 E 5 10.00 Fair CLR 77 69.1 77% 79 29.99 1014.6
11 20:53 E 8 10.00 Partly Cloudy SCT110 80.1 69.1 69% 83 29.99 1014.3
11 19:53 E 6 10.00 Fair CLR 82.9 70 65% 87 29.98 1014.1
11 18:53 E 8 10.00 Fair CLR 84.9 70 88 84 61% 89 29.97 1014.0
11 17:53 E 9 10.00 Fair CLR 87.1 70 57% 92 29.98 1014.2
Date Time (cdt) Wind (mph) Vis. (mi.) Weather Sky Cond. Air Dwpt Max. Min. Relative Humidity Wind Chill (°F) Heat Index (°F) altimeter (in) sea level (mb) 1 hr 3 hr 6 hr
6 hour
Temperature (ºF) Pressure Precipitation (in)